Hourly Data Report for February 24, 2004

TORONTO CITY
ONTARIO

43°40'00.000" N
79°24'00.000" W
112.50 m
6158355
71508
XTO

Download Data

Hourly Data (February 2004)
Hourly Data Report for February 24, 2004
TIME
LST
Temp Definition
°C
Dew Point Definition
°C
Rel Hum Definition
%
Precip. Amount Definition
mm

Wind Dir Definition
10's deg

Wind Spd Definition
km/h
Visibility Definition
km
Stn Press Definition
kPa
Hmdx Definition


Wind Chill Definition


Weather Definition


00:00 -1.2 -5.4 73   LegendMM LegendMM LegendMM 100.89     LegendNANA
01:00 -1.8 -4.2 84   LegendMM LegendMM LegendMM 100.89     LegendNANA
02:00 -2.3 -3.4 92   LegendMM LegendMM LegendMM 100.88     LegendNANA
03:00 -2.5 -3.4 94   LegendMM LegendMM LegendMM 100.84     LegendNANA
04:00 -2.8 -3.6 94   LegendMM LegendMM LegendMM 100.81     LegendNANA
05:00 -3.4 -4.3 93   LegendMM LegendMM LegendMM 100.83     LegendNANA
06:00 -3.7 -4.7 93   LegendMM LegendMM LegendMM 100.86     LegendNANA
07:00 -4.1 -5.6 89   LegendMM LegendMM LegendMM 100.89     LegendNANA
08:00 -4.4 -6.0 89   LegendMM LegendMM LegendMM 100.95     LegendNANA
09:00 -4.1 -5.9 87   LegendMM LegendMM LegendMM 100.99     LegendNANA
10:00 -3.1 -6.0 80   LegendMM LegendMM LegendMM 101.01     LegendNANA
11:00 -1.9 -6.1 73   LegendMM LegendMM LegendMM 101.02     LegendNANA
12:00 -0.1 -8.3 54   LegendMM LegendMM LegendMM 101.00     LegendNANA
13:00 1.2 -9.0 46   LegendMM LegendMM LegendMM 100.94     LegendNANA
14:00 1.3 -13.3 33   LegendMM LegendMM LegendMM 100.89     LegendNANA
15:00 0.9 -10.0 44   LegendMM LegendMM LegendMM 100.85     LegendNANA
16:00 0.9 -7.9 52   LegendMM LegendMM LegendMM 100.84     LegendNANA
17:00 0.6 -7.2 56   LegendMM LegendMM LegendMM 100.85     LegendNANA
18:00 -0.7 -11.5 44   LegendMM LegendMM LegendMM 100.90     LegendNANA
19:00 -1.7 -13.5 40   LegendMM LegendMM LegendMM 100.95     LegendNANA
20:00 -2.6 -13.5 43   LegendMM LegendMM LegendMM 100.96     LegendNANA
21:00 -3.1 -12.4 49   LegendMM LegendMM LegendMM 100.98     LegendNANA
22:00 -3.4 -10.5 58   LegendMM LegendMM LegendMM 101.03     LegendNANA
23:00 -3.0 -10.4 57   LegendMM LegendMM LegendMM 101.07     LegendNANA

Notes on Data Quality.

Legend

  • E = Estimated
  • M = Missing
  • NA = Not Available*
  • [empty] = Indicates an unobserved value
Date modified: